STARLINK-32081, 60348

Orbit data source: Space-Track

STARLINK-32081, 60348 is a payload satellite owned by SpaceX/Seattle (US) in LEO that was launched on Fri, 02 Aug 2024 UTC via an FALCON 9 launch vehicle from the Air Force Eastern Test Range (AFETR). Payload-class satellites include a variety of spacecraft equipped with specific instruments for various scientific and technological missions. These include communications satellites like Starlink; space stations such as the ISS; scientific satellites like the Hubble; Earth observation satellites from companies like Planet Labs, Umbra, and HawkEye 360; GPS; miniature CubeSats for education and research; and military/defense satellites.

Loading next visibility...
Identifier
60348, 2024-136V
Orbit
LEO
Last TLE update
12 hours ago
Origin
Manufacturer
SpaceX/Seattle
Mission
Operational Commercial Communications
Bus & Motor
STARLINK V2M, Unknown motor
Mass
730 kg wet, ~700 kg dry
Launch date (UTC)
2024-08-02 (11 months ago)
Launch vehicle
FALCON 9
Launch site
Air Force Eastern Test Range (AFETR)
Object type
Payload
Rocket body
Debris
Shape & HBR
Box + 2 Pan, 29 m
Radar Cross Section
33.884 m², Large (>1 m²)

Expand to show TLE details & history

TLE from 12 hours ago
0 STARLINK-32081
1 60348U 24136V   25189.84323821  .00000318  00000-0  22857-4 0  9993
2 60348  53.1601 128.0864 0001376  78.8445 281.2711 15.30196081 52330
Epoch: 2025-07-08T20:14Z
TLE epoch observation values (Epoch: 2025-07-08T20:14:15.781Z)
Latitude
0.00003°
Longitude
-102.51174°
Altitude
475.942 km
Speed
7.629 km/s
True Right ascension
08h 32m 20s
True Declination
0° 00' 00"
Sunlit
Object was in daylight at epoch
Visualization orbit readout
Latitude
-32.16484°
Longitude
103.11712°
Altitude
485.947 km
Speed
7.622 km/s
Apparent Right ascension
02h 03m 28s
Apparent Declination
-70° 01' 44"
Sunlit
Object is in full shadow
Visualization observer readout
Local Sidereal Time
20:20:03
Azimuth
155.185° SSE
Elevation
-35.742°
Doppler factor
1
Orbital elements
Apogee altitude
476.426 km
Perigee altitude
474.54 km
Semi-major axis
6,853.62 km
Eccentricity
0.00014
Inclination
53.1601°
RAAN
128.0864°
Arg. of periapsis
78.8445°
True anomaly
Unknown
Mean anomaly
281.2711°
Eccentric anomaly
Unknown
Mean motion
3.82528 °/min
Orbital period
94.11 mins
BSTAR
0.000022857
Loading maneuver chart data...
Loading SW <> Apogee altitude chart data...
Loading historical data...
Loading historical data...
Loading historical data...
Loading historical data...
Loading historical data...
Loading historical data...
Loading historical data...

STARLINK-32081 Visibility forecast

Observer location: undefined°, undefined°

Span
Click to sort rows by Start time (UTC) header in descending order
Start Az.
Max El. time (UTC)
Max El. Az.
Max El.
End time (UTC)
End Az.
5 mins2025-07-09 21:28:26.641Z173.622° S2025-07-09 21:30:26.641Z135.929° SSE19.672°2025-07-09 21:33:26.641Z79.731° E
5 mins2025-07-09 23:06:26.641Z263.012° W2025-07-09 23:08:26.641Z327.76° NNW35.242°2025-07-09 23:11:26.641Z37.177° NE
4 mins2025-07-10 04:03:26.641Z345.192° N2025-07-10 04:05:26.641Z31.383° NE22.327°2025-07-10 04:07:26.641Z73.598° E
5 mins2025-07-10 05:41:26.641Z290.828° WNW2025-07-10 05:43:26.641Z220.181° SW37.913°2025-07-10 05:46:26.641Z150.233° SSE
|